owner,sensor,date,latitude,longitude,vertical_datum,sea_water_practical_salinity,qcFlag 
SCCF RECON,ioos:station:SCCF:13:1,2017-01-01T00:00:00Z,26.5255,-82.0032,2.49,30.48,1111122 
SCCF RECON,ioos:station:SCCF:13:1,2017-01-01T01:00:00Z,26.5255,-82.0032,2.441,30.31,1111122 
SCCF RECON,ioos:station:SCCF:13:1,2017-01-01T02:00:00Z,26.5255,-82.0032,2.43,29.52,1111122 
SCCF RECON,ioos:station:SCCF:13:1,2017-01-01T03:00:00Z,26.5255,-82.0032,2.474,27.6,1111122 
SCCF RECON,ioos:station:SCCF:13:1,2017-01-01T04:00:00Z,26.5255,-82.0032,2.597,28.63,1111122 
SCCF RECON,ioos:station:SCCF:13:1,2017-01-01T05:00:00Z,26.5255,-82.0032,2.68,29.56,1111122 
SCCF RECON,ioos:station:SCCF:13:1,2017-01-01T06:00:00Z,26.5255,-82.0032,2.73,29.82,1111122 
SCCF RECON,ioos:station:SCCF:13:1,2017-01-01T07:00:00Z,26.5255,-82.0032,2.749,30.53,1111122 
SCCF RECON,ioos:station:SCCF:13:1,2017-01-01T08:00:00Z,26.5255,-82.0032,2.76,31.13,1111122 
SCCF RECON,ioos:station:SCCF:13:1,2017-01-01T09:00:00Z,26.5255,-82.0032,2.708,31.49,1111122 
SCCF RECON,ioos:station:SCCF:13:1,2017-01-01T10:00:00Z,26.5255,-82.0032,2.61,31.54,1111122 
SCCF RECON,ioos:station:SCCF:13:1,2017-01-01T11:00:00Z,26.5255,-82.0032,2.513,30.77,1111122 
SCCF RECON,ioos:station:SCCF:13:1,2017-01-01T12:00:00Z,26.5255,-82.0032,2.43,28.67,1111122 
SCCF RECON,ioos:station:SCCF:13:1,2017-01-01T13:00:00Z,26.5255,-82.0032,2.35,28.08,1111122 
SCCF RECON,ioos:station:SCCF:13:1,2017-01-01T14:00:00Z,26.5255,-82.0032,2.271,27.24,1111122 
SCCF RECON,ioos:station:SCCF:13:1,2017-01-01T15:00:00Z,26.5255,-82.0032,2.25,26.43,1111122 
SCCF RECON,ioos:station:SCCF:13:1,2017-01-01T16:00:00Z,26.5255,-82.0032,2.343,25.78,1111122 
SCCF RECON,ioos:station:SCCF:13:1,2017-01-01T17:00:00Z,26.5255,-82.0032,2.488,25.76,1111122 
SCCF RECON,ioos:station:SCCF:13:1,2017-01-01T18:00:00Z,26.5255,-82.0032,2.551,27.44,1111122 
SCCF RECON,ioos:station:SCCF:13:1,2017-01-01T19:00:00Z,26.5255,-82.0032,2.596,28.15,1111122 
SCCF RECON,ioos:station:SCCF:13:1,2017-01-01T20:00:00Z,26.5255,-82.0032,2.65,30.22,1111122 
SCCF RECON,ioos:station:SCCF:13:1,2017-01-01T21:00:00Z,26.5255,-82.0032,2.69,31.21,1111122 
SCCF RECON,ioos:station:SCCF:13:1,2017-01-01T22:00:00Z,26.5255,-82.0032,2.698,31.3,1111122 
SCCF RECON,ioos:station:SCCF:13:1,2017-01-01T23:00:00Z,26.5255,-82.0032,2.677,31.38,1111122 
SCCF RECON,ioos:station:SCCF:13:1,2017-01-02T00:00:00Z,26.5255,-82.0032,2.626,31.34,1111122 
SCCF RECON,ioos:station:SCCF:13:1,2017-01-02T01:00:00Z,26.5255,-82.0032,2.581,31.27,1111122 
SCCF RECON,ioos:station:SCCF:13:1,2017-01-02T02:00:00Z,26.5255,-82.0032,2.55,30.76,1111122 
SCCF RECON,ioos:station:SCCF:13:1,2017-01-02T03:00:00Z,26.5255,-82.0032,2.55,29.72,1111122 
SCCF RECON,ioos:station:SCCF:13:1,2017-01-02T04:00:00Z,26.5255,-82.0032,2.61,28.88,1111122 
SCCF RECON,ioos:station:SCCF:13:1,2017-01-02T05:00:00Z,26.5255,-82.0032,2.71,29.67,1111122 
SCCF RECON,ioos:station:SCCF:13:1,2017-01-02T06:00:00Z,26.5255,-82.0032,2.78,30.39,1111122 
SCCF RECON,ioos:station:SCCF:13:1,2017-01-02T07:00:00Z,26.5255,-82.0032,2.8,30.85,1111122 
SCCF RECON,ioos:station:SCCF:13:1,2017-01-02T08:00:00Z,26.5255,-82.0032,2.81,31.32,1111122 
SCCF RECON,ioos:station:SCCF:13:1,2017-01-02T09:00:00Z,26.5255,-82.0032,2.77,31.64,1111122 
SCCF RECON,ioos:station:SCCF:13:1,2017-01-02T10:00:00Z,26.5255,-82.0032,2.68,31.74,1111122 
SCCF RECON,ioos:station:SCCF:13:1,2017-01-02T11:00:00Z,26.5255,-82.0032,2.58,31.14,1111122 
SCCF RECON,ioos:station:SCCF:13:1,2017-01-02T12:00:00Z,26.5255,-82.0032,2.49,29.58,1111122 
SCCF RECON,ioos:station:SCCF:13:1,2017-01-02T13:00:00Z,26.5255,-82.0032,2.41,28.55,1111122 
SCCF RECON,ioos:station:SCCF:13:1,2017-01-02T14:00:00Z,26.5255,-82.0032,2.32,27.78,1111122 
SCCF RECON,ioos:station:SCCF:13:1,2017-01-02T15:00:00Z,26.5255,-82.0032,2.25,27.03,1111122 
SCCF RECON,ioos:station:SCCF:13:1,2017-01-02T16:00:00Z,26.5255,-82.0032,2.23,26.28,1111122 
SCCF RECON,ioos:station:SCCF:13:1,2017-01-02T17:00:00Z,26.5255,-82.0032,2.325,25.83,1111122 
SCCF RECON,ioos:station:SCCF:13:1,2017-01-02T18:00:00Z,26.5255,-82.0032,2.425,25.74,1111122 
SCCF RECON,ioos:station:SCCF:13:1,2017-01-02T19:00:00Z,26.5255,-82.0032,2.477,26.89,1111122 
SCCF RECON,ioos:station:SCCF:13:1,2017-01-02T20:00:00Z,26.5255,-82.0032,2.51,27.23,1111122 
SCCF RECON,ioos:station:SCCF:13:1,2017-01-02T21:00:00Z,26.5255,-82.0032,2.56,28.81,1111122 
SCCF RECON,ioos:station:SCCF:13:1,2017-01-02T22:00:00Z,26.5255,-82.0032,2.592,30.5,1111122 
SCCF RECON,ioos:station:SCCF:13:1,2017-01-02T23:00:00Z,26.5255,-82.0032,2.589,31.22,1111122 
SCCF RECON,ioos:station:SCCF:13:1,2017-01-03T00:00:00Z,26.5255,-82.0032,2.53,31.31,1111122 
SCCF RECON,ioos:station:SCCF:13:1,2017-01-03T01:00:00Z,26.5255,-82.0032,2.46,31.21,1111122 
SCCF RECON,ioos:station:SCCF:13:1,2017-01-03T02:00:00Z,26.5255,-82.0032,2.392,30.05,1111122 
SCCF RECON,ioos:station:SCCF:13:1,2017-01-03T03:00:00Z,26.5255,-82.0032,2.38,28.57,1111122 
SCCF RECON,ioos:station:SCCF:13:1,2017-01-03T04:00:00Z,26.5255,-82.0032,2.41,27.77,1111122 
SCCF RECON,ioos:station:SCCF:13:1,2017-01-03T05:00:00Z,26.5255,-82.0032,2.5,27.25,1111122 
SCCF RECON,ioos:station:SCCF:13:1,2017-01-03T06:00:00Z,26.5255,-82.0032,2.55,29.44,1111122 
SCCF RECON,ioos:station:SCCF:13:1,2017-01-03T07:00:00Z,26.5255,-82.0032,2.6,29.73,1111122 
SCCF RECON,ioos:station:SCCF:13:1,2017-01-03T08:00:00Z,26.5255,-82.0032,2.62,30.23,1111122 
SCCF RECON,ioos:station:SCCF:13:1,2017-01-03T09:00:00Z,26.5255,-82.0032,2.63,30.98,1111122 
SCCF RECON,ioos:station:SCCF:13:1,2017-01-03T10:00:00Z,26.5255,-82.0032,2.63,31.53,1111122 
SCCF RECON,ioos:station:SCCF:13:1,2017-01-03T11:00:00Z,26.5255,-82.0032,2.615,31.65,1111122 
SCCF RECON,ioos:station:SCCF:13:1,2017-01-03T12:00:00Z,26.5255,-82.0032,2.52,31.7,1111122 
SCCF RECON,ioos:station:SCCF:13:1,2017-01-03T13:00:00Z,26.5255,-82.0032,2.41,30.55,1111122 
SCCF RECON,ioos:station:SCCF:13:1,2017-01-03T14:00:00Z,26.5255,-82.0032,2.34,29.08,1111122 
SCCF RECON,ioos:station:SCCF:13:1,2017-01-03T15:00:00Z,26.5255,-82.0032,2.26,27.99,1111122 
SCCF RECON,ioos:station:SCCF:13:1,2017-01-03T16:00:00Z,26.5255,-82.0032,2.2,27.22,1111122 
SCCF RECON,ioos:station:SCCF:13:1,2017-01-03T17:00:00Z,26.5255,-82.0032,2.211,26.12,1111122 
SCCF RECON,ioos:station:SCCF:13:1,2017-01-03T18:00:00Z,26.5255,-82.0032,2.3,25.79,1111122 
SCCF RECON,ioos:station:SCCF:13:1,2017-01-03T19:00:00Z,26.5255,-82.0032,2.399,26.36,1111122 
SCCF RECON,ioos:station:SCCF:13:1,2017-01-03T20:00:00Z,26.5255,-82.0032,2.459,27.85,1111122 
SCCF RECON,ioos:station:SCCF:13:1,2017-01-03T21:00:00Z,26.5255,-82.0032,2.52,28.73,1111122 
SCCF RECON,ioos:station:SCCF:13:1,2017-01-03T22:00:00Z,26.5255,-82.0032,2.57,30.51,1111122 
SCCF RECON,ioos:station:SCCF:13:1,2017-01-03T23:00:00Z,26.5255,-82.0032,2.59,31.57,1111122 
SCCF RECON,ioos:station:SCCF:13:1,2017-01-04T00:00:00Z,26.5255,-82.0032,2.56,31.8,1111122 
SCCF RECON,ioos:station:SCCF:13:1,2017-01-04T01:00:00Z,26.5255,-82.0032,2.49,31.79,1111122 
SCCF RECON,ioos:station:SCCF:13:1,2017-01-04T02:00:00Z,26.5255,-82.0032,2.43,31.67,1111122 
SCCF RECON,ioos:station:SCCF:13:1,2017-01-04T03:00:00Z,26.5255,-82.0032,2.4,30.81,1111122 
SCCF RECON,ioos:station:SCCF:13:1,2017-01-04T04:00:00Z,26.5255,-82.0032,2.37,29.44,1111122 
SCCF RECON,ioos:station:SCCF:13:1,2017-01-04T05:00:00Z,26.5255,-82.0032,2.389,28.37,1111122 
SCCF RECON,ioos:station:SCCF:13:1,2017-01-04T06:00:00Z,26.5255,-82.0032,2.46,28.08,1111122 
SCCF RECON,ioos:station:SCCF:13:1,2017-01-04T07:00:00Z,26.5255,-82.0032,2.522,30.03,1111122 
SCCF RECON,ioos:station:SCCF:13:1,2017-01-04T08:00:00Z,26.5255,-82.0032,2.57,30.04,1111122 
SCCF RECON,ioos:station:SCCF:13:1,2017-01-04T09:00:00Z,26.5255,-82.0032,2.61,30.58,1111122 
SCCF RECON,ioos:station:SCCF:13:1,2017-01-04T10:00:00Z,26.5255,-82.0032,2.65,31.56,1111122 
SCCF RECON,ioos:station:SCCF:13:1,2017-01-04T11:00:00Z,26.5255,-82.0032,2.658,31.78,1111122 
SCCF RECON,ioos:station:SCCF:13:1,2017-01-04T12:00:00Z,26.5255,-82.0032,2.6,32.09,1111122 
SCCF RECON,ioos:station:SCCF:13:1,2017-01-04T13:00:00Z,26.5255,-82.0032,2.508,32.08,1111122 
SCCF RECON,ioos:station:SCCF:13:1,2017-01-04T14:00:00Z,26.5255,-82.0032,2.41,31.3,1111122 
SCCF RECON,ioos:station:SCCF:13:1,2017-01-04T15:00:00Z,26.5255,-82.0032,2.35,30.84,1111122 
SCCF RECON,ioos:station:SCCF:13:1,2017-01-04T16:00:00Z,26.5255,-82.0032,2.294,29.75,1111122 
SCCF RECON,ioos:station:SCCF:13:1,2017-01-04T17:00:00Z,26.5255,-82.0032,2.26,27.94,1111122 
SCCF RECON,ioos:station:SCCF:13:1,2017-01-04T18:00:00Z,26.5255,-82.0032,2.287,27.46,1111122 
SCCF RECON,ioos:station:SCCF:13:1,2017-01-04T19:00:00Z,26.5255,-82.0032,2.377,27.13,1111122 
SCCF RECON,ioos:station:SCCF:13:1,2017-01-04T20:00:00Z,26.5255,-82.0032,2.46,28.08,1111122 
SCCF RECON,ioos:station:SCCF:13:1,2017-01-04T21:00:00Z,26.5255,-82.0032,2.52,29.26,1111122 
SCCF RECON,ioos:station:SCCF:13:1,2017-01-04T22:00:00Z,26.5255,-82.0032,2.579,30.0,1111122 
SCCF RECON,ioos:station:SCCF:13:1,2017-01-04T23:00:00Z,26.5255,-82.0032,2.609,31.01,1111122 
SCCF RECON,ioos:station:SCCF:13:1,2017-01-05T00:00:00Z,26.5255,-82.0032,2.59,31.48,1111122 
SCCF RECON,ioos:station:SCCF:13:1,2017-01-05T01:00:00Z,26.5255,-82.0032,2.53,31.83,1111122 
SCCF RECON,ioos:station:SCCF:13:1,2017-01-05T02:00:00Z,26.5255,-82.0032,2.46,31.58,1111122 
SCCF RECON,ioos:station:SCCF:13:1,2017-01-05T03:00:00Z,26.5255,-82.0032,2.39,30.38,1111122 
SCCF RECON,ioos:station:SCCF:13:1,2017-01-05T04:00:00Z,26.5255,-82.0032,2.34,29.27,1111122 
SCCF RECON,ioos:station:SCCF:13:1,2017-01-05T05:00:00Z,26.5255,-82.0032,2.28,27.89,1111122 
SCCF RECON,ioos:station:SCCF:13:1,2017-01-05T06:00:00Z,26.5255,-82.0032,2.26,26.64,1111122 
SCCF RECON,ioos:station:SCCF:13:1,2017-01-05T07:00:00Z,26.5255,-82.0032,2.28,25.55,1111122 
SCCF RECON,ioos:station:SCCF:13:1,2017-01-05T08:00:00Z,26.5255,-82.0032,2.37,25.18,1111122 
SCCF RECON,ioos:station:SCCF:13:1,2017-01-05T09:00:00Z,26.5255,-82.0032,2.44,26.69,1111122 
SCCF RECON,ioos:station:SCCF:13:1,2017-01-05T10:00:00Z,26.5255,-82.0032,2.48,28.85,1111122 
SCCF RECON,ioos:station:SCCF:13:1,2017-01-05T11:00:00Z,26.5255,-82.0032,2.49,29.39,1111122 
SCCF RECON,ioos:station:SCCF:13:1,2017-01-05T12:00:00Z,26.5255,-82.0032,2.489,30.14,1111122 
SCCF RECON,ioos:station:SCCF:13:1,2017-01-05T13:00:00Z,26.5255,-82.0032,2.439,30.56,1111122 
SCCF RECON,ioos:station:SCCF:13:1,2017-01-05T14:00:00Z,26.5255,-82.0032,2.37,30.19,1111122 
SCCF RECON,ioos:station:SCCF:13:1,2017-01-05T15:00:00Z,26.5255,-82.0032,2.31,28.29,1111122 
SCCF RECON,ioos:station:SCCF:13:1,2017-01-05T16:00:00Z,26.5255,-82.0032,2.27,26.43,1111122 
SCCF RECON,ioos:station:SCCF:13:1,2017-01-05T17:00:00Z,26.5255,-82.0032,2.232,26.25,1111122 
SCCF RECON,ioos:station:SCCF:13:1,2017-01-05T18:00:00Z,26.5255,-82.0032,2.21,25.48,1111122 
SCCF RECON,ioos:station:SCCF:13:1,2017-01-05T19:00:00Z,26.5255,-82.0032,2.241,24.51,1111122 
SCCF RECON,ioos:station:SCCF:13:1,2017-01-05T20:00:00Z,26.5255,-82.0032,2.33,24.83,1111122 
SCCF RECON,ioos:station:SCCF:13:1,2017-01-05T21:00:00Z,26.5255,-82.0032,2.429,27.12,1111122 
SCCF RECON,ioos:station:SCCF:13:1,2017-01-05T22:00:00Z,26.5255,-82.0032,2.49,28.5,1111122 
SCCF RECON,ioos:station:SCCF:13:1,2017-01-05T23:00:00Z,26.5255,-82.0032,2.55,30.62,1111122 
SCCF RECON,ioos:station:SCCF:13:1,2017-01-06T00:00:00Z,26.5255,-82.0032,2.6,31.93,1111122 
SCCF RECON,ioos:station:SCCF:13:1,2017-01-06T01:00:00Z,26.5255,-82.0032,2.6,32.2,1111122 
SCCF RECON,ioos:station:SCCF:13:1,2017-01-06T02:00:00Z,26.5255,-82.0032,2.54,32.26,1111122 
SCCF RECON,ioos:station:SCCF:13:1,2017-01-06T03:00:00Z,26.5255,-82.0032,2.467,32.24,1111122 
SCCF RECON,ioos:station:SCCF:13:1,2017-01-06T04:00:00Z,26.5255,-82.0032,2.39,31.11,1111122 
SCCF RECON,ioos:station:SCCF:13:1,2017-01-06T05:00:00Z,26.5255,-82.0032,2.34,29.46,1111122 
SCCF RECON,ioos:station:SCCF:13:1,2017-01-06T06:00:00Z,26.5255,-82.0032,2.28,28.14,1111122 
SCCF RECON,ioos:station:SCCF:13:1,2017-01-06T07:00:00Z,26.5255,-82.0032,2.24,26.74,1111122 
SCCF RECON,ioos:station:SCCF:13:1,2017-01-06T08:00:00Z,26.5255,-82.0032,2.26,25.87,1111122 
SCCF RECON,ioos:station:SCCF:13:1,2017-01-06T09:00:00Z,26.5255,-82.0032,2.35,25.08,1111122 
SCCF RECON,ioos:station:SCCF:13:1,2017-01-06T10:00:00Z,26.5255,-82.0032,2.424,26.17,1111122 
SCCF RECON,ioos:station:SCCF:13:1,2017-01-06T11:00:00Z,26.5255,-82.0032,2.464,28.9,1111122 
SCCF RECON,ioos:station:SCCF:13:1,2017-01-06T12:00:00Z,26.5255,-82.0032,2.5,29.4,1111122 
SCCF RECON,ioos:station:SCCF:13:1,2017-01-06T13:00:00Z,26.5255,-82.0032,2.52,29.91,1111122 
SCCF RECON,ioos:station:SCCF:13:1,2017-01-06T14:00:00Z,26.5255,-82.0032,2.51,30.58,1111122 
SCCF RECON,ioos:station:SCCF:13:1,2017-01-06T15:00:00Z,26.5255,-82.0032,2.48,31.03,1111122 
SCCF RECON,ioos:station:SCCF:13:1,2017-01-06T16:00:00Z,26.5255,-82.0032,2.42,30.96,1111122 
SCCF RECON,ioos:station:SCCF:13:1,2017-01-06T17:00:00Z,26.5255,-82.0032,2.367,29.11,1111122 
SCCF RECON,ioos:station:SCCF:13:1,2017-01-06T18:00:00Z,26.5255,-82.0032,2.305,26.43,1111122 
SCCF RECON,ioos:station:SCCF:13:1,2017-01-06T19:00:00Z,26.5255,-82.0032,2.299,26.15,1111122 
SCCF RECON,ioos:station:SCCF:13:1,2017-01-06T20:00:00Z,26.5255,-82.0032,2.368,25.93,1111122 
SCCF RECON,ioos:station:SCCF:13:1,2017-01-06T21:00:00Z,26.5255,-82.0032,2.46,26.8,1111122 
SCCF RECON,ioos:station:SCCF:13:1,2017-01-06T22:00:00Z,26.5255,-82.0032,2.526,29.02,1111122 
SCCF RECON,ioos:station:SCCF:13:1,2017-01-06T23:00:00Z,26.5255,-82.0032,2.603,30.9,1111122 
SCCF RECON,ioos:station:SCCF:13:1,2017-01-07T00:00:00Z,26.5255,-82.0032,2.681,32.26,1111122 
SCCF RECON,ioos:station:SCCF:13:1,2017-01-07T01:00:00Z,26.5255,-82.0032,2.74,32.66,1111122 
SCCF RECON,ioos:station:SCCF:13:1,2017-01-07T02:00:00Z,26.5255,-82.0032,2.75,32.74,1111122 
SCCF RECON,ioos:station:SCCF:13:1,2017-01-07T03:00:00Z,26.5255,-82.0032,2.71,32.83,1111122 
SCCF RECON,ioos:station:SCCF:13:1,2017-01-07T04:00:00Z,26.5255,-82.0032,2.629,32.75,1111122 
SCCF RECON,ioos:station:SCCF:13:1,2017-01-07T05:00:00Z,26.5255,-82.0032,2.56,32.73,1111122 
SCCF RECON,ioos:station:SCCF:13:1,2017-01-07T06:00:00Z,26.5255,-82.0032,2.479,32.25,1111122 
SCCF RECON,ioos:station:SCCF:13:1,2017-01-07T07:00:00Z,26.5255,-82.0032,2.41,31.17,1111122 
SCCF RECON,ioos:station:SCCF:13:1,2017-01-07T08:00:00Z,26.5255,-82.0032,2.357,30.71,1111122 
SCCF RECON,ioos:station:SCCF:13:1,2017-01-07T09:00:00Z,26.5255,-82.0032,2.389,29.85,1111122 
SCCF RECON,ioos:station:SCCF:13:1,2017-01-07T10:00:00Z,26.5255,-82.0032,2.488,29.0,1111122 
SCCF RECON,ioos:station:SCCF:13:1,2017-01-07T11:00:00Z,26.5255,-82.0032,2.56,30.37,1111122 
SCCF RECON,ioos:station:SCCF:13:1,2017-01-07T12:00:00Z,26.5255,-82.0032,2.61,31.15,1111122 
SCCF RECON,ioos:station:SCCF:13:1,2017-01-07T13:00:00Z,26.5255,-82.0032,2.68,31.4,1111122 
SCCF RECON,ioos:station:SCCF:13:1,2017-01-07T14:00:00Z,26.5255,-82.0032,2.69,32.12,1111122 
SCCF RECON,ioos:station:SCCF:13:1,2017-01-07T15:00:00Z,26.5255,-82.0032,2.67,32.38,1111122 
SCCF RECON,ioos:station:SCCF:13:1,2017-01-07T16:00:00Z,26.5255,-82.0032,2.7,32.64,1111122 
SCCF RECON,ioos:station:SCCF:13:1,2017-01-07T17:00:00Z,26.5255,-82.0032,2.67,32.47,1111122 
SCCF RECON,ioos:station:SCCF:13:1,2017-01-07T18:00:00Z,26.5255,-82.0032,2.549,32.33,1111122 
SCCF RECON,ioos:station:SCCF:13:1,2017-01-07T19:00:00Z,26.5255,-82.0032,2.45,31.34,1111122 
SCCF RECON,ioos:station:SCCF:13:1,2017-01-07T20:00:00Z,26.5255,-82.0032,2.4,30.49,1111122 
SCCF RECON,ioos:station:SCCF:13:1,2017-01-07T21:00:00Z,26.5255,-82.0032,2.37,29.08,1111122 
SCCF RECON,ioos:station:SCCF:13:1,2017-01-07T22:00:00Z,26.5255,-82.0032,2.355,27.96,1111122 
SCCF RECON,ioos:station:SCCF:13:1,2017-01-07T23:00:00Z,26.5255,-82.0032,2.36,27.35,1111122 
SCCF RECON,ioos:station:SCCF:13:1,2017-01-08T00:00:00Z,26.5255,-82.0032,2.39,26.49,1111122 
SCCF RECON,ioos:station:SCCF:13:1,2017-01-08T01:00:00Z,26.5255,-82.0032,2.407,25.82,1111122 
SCCF RECON,ioos:station:SCCF:13:1,2017-01-08T02:00:00Z,26.5255,-82.0032,2.409,25.31,1111122 
SCCF RECON,ioos:station:SCCF:13:1,2017-01-08T03:00:00Z,26.5255,-82.0032,2.39,25.08,1111122 
SCCF RECON,ioos:station:SCCF:13:1,2017-01-08T04:00:00Z,26.5255,-82.0032,2.33,24.66,1111122 
SCCF RECON,ioos:station:SCCF:13:1,2017-01-08T05:00:00Z,26.5255,-82.0032,2.24,24.11,1111122 
SCCF RECON,ioos:station:SCCF:13:1,2017-01-08T06:00:00Z,26.5255,-82.0032,2.15,23.71,1111122 
SCCF RECON,ioos:station:SCCF:13:1,2017-01-08T07:00:00Z,26.5255,-82.0032,2.05,23.11,1111122 
SCCF RECON,ioos:station:SCCF:13:1,2017-01-08T08:00:00Z,26.5255,-82.0032,1.95,22.2,1111122 
SCCF RECON,ioos:station:SCCF:13:1,2017-01-08T09:00:00Z,26.5255,-82.0032,1.87,21.3,1111122 
SCCF RECON,ioos:station:SCCF:13:1,2017-01-08T10:00:00Z,26.5255,-82.0032,1.839,20.55,1111122 
SCCF RECON,ioos:station:SCCF:13:1,2017-01-08T11:00:00Z,26.5255,-82.0032,1.86,20.09,1111122 
SCCF RECON,ioos:station:SCCF:13:1,2017-01-08T12:00:00Z,26.5255,-82.0032,1.911,19.77,1111122 
SCCF RECON,ioos:station:SCCF:13:1,2017-01-08T13:00:00Z,26.5255,-82.0032,1.993,19.48,1111122 
SCCF RECON,ioos:station:SCCF:13:1,2017-01-08T14:00:00Z,26.5255,-82.0032,2.052,19.36,1111122 
SCCF RECON,ioos:station:SCCF:13:1,2017-01-08T15:00:00Z,26.5255,-82.0032,2.1,19.32,1111122 
SCCF RECON,ioos:station:SCCF:13:1,2017-01-08T16:00:00Z,26.5255,-82.0032,2.102,19.19,1111122 
SCCF RECON,ioos:station:SCCF:13:1,2017-01-08T17:00:00Z,26.5255,-82.0032,2.1,19.42,1111122 
SCCF RECON,ioos:station:SCCF:13:1,2017-01-08T18:00:00Z,26.5255,-82.0032,2.107,19.41,1111122 
SCCF RECON,ioos:station:SCCF:13:1,2017-01-08T19:00:00Z,26.5255,-82.0032,2.108,20.42,1111122 
SCCF RECON,ioos:station:SCCF:13:1,2017-01-08T20:00:00Z,26.5255,-82.0032,2.132,21.32,1111122 
SCCF RECON,ioos:station:SCCF:13:1,2017-01-08T21:00:00Z,26.5255,-82.0032,2.13,22.57,1111122 
SCCF RECON,ioos:station:SCCF:13:1,2017-01-08T22:00:00Z,26.5255,-82.0032,2.185,23.23,1111122 
SCCF RECON,ioos:station:SCCF:13:1,2017-01-08T23:00:00Z,26.5255,-82.0032,2.31,26.26,1111122 
SCCF RECON,ioos:station:SCCF:13:1,2017-01-09T00:00:00Z,26.5255,-82.0032,2.422,27.3,1111122 
SCCF RECON,ioos:station:SCCF:13:1,2017-01-09T01:00:00Z,26.5255,-82.0032,2.52,28.23,1111122 
SCCF RECON,ioos:station:SCCF:13:1,2017-01-09T02:00:00Z,26.5255,-82.0032,2.57,28.2,1111122 
SCCF RECON,ioos:station:SCCF:13:1,2017-01-09T03:00:00Z,26.5255,-82.0032,2.54,28.4,1111122 
SCCF RECON,ioos:station:SCCF:13:1,2017-01-09T04:00:00Z,26.5255,-82.0032,2.468,28.5,1111122 
SCCF RECON,ioos:station:SCCF:13:1,2017-01-09T05:00:00Z,26.5255,-82.0032,2.359,28.43,1111122 
SCCF RECON,ioos:station:SCCF:13:1,2017-01-09T06:00:00Z,26.5255,-82.0032,2.273,28.42,1111122 
SCCF RECON,ioos:station:SCCF:13:1,2017-01-09T07:00:00Z,26.5255,-82.0032,2.18,27.39,1111122 
SCCF RECON,ioos:station:SCCF:13:1,2017-01-09T08:00:00Z,26.5255,-82.0032,2.09,25.64,1111122 
SCCF RECON,ioos:station:SCCF:13:1,2017-01-09T09:00:00Z,26.5255,-82.0032,2.012,25.64,1111122 
SCCF RECON,ioos:station:SCCF:13:1,2017-01-09T10:00:00Z,26.5255,-82.0032,1.95,24.84,1111122 
SCCF RECON,ioos:station:SCCF:13:1,2017-01-09T11:00:00Z,26.5255,-82.0032,1.933,23.01,1111122 
SCCF RECON,ioos:station:SCCF:13:1,2017-01-09T12:00:00Z,26.5255,-82.0032,2.01,22.11,1111122 
SCCF RECON,ioos:station:SCCF:13:1,2017-01-09T13:00:00Z,26.5255,-82.0032,2.157,21.57,1111122 
SCCF RECON,ioos:station:SCCF:13:1,2017-01-09T14:00:00Z,26.5255,-82.0032,2.25,22.74,1111122 
SCCF RECON,ioos:station:SCCF:13:1,2017-01-09T15:00:00Z,26.5255,-82.0032,2.33,24.93,1111122 
SCCF RECON,ioos:station:SCCF:13:1,2017-01-09T16:00:00Z,26.5255,-82.0032,2.381,25.91,1111122 
SCCF RECON,ioos:station:SCCF:13:1,2017-01-09T17:00:00Z,26.5255,-82.0032,2.401,27.88,1111122 
SCCF RECON,ioos:station:SCCF:13:1,2017-01-09T18:00:00Z,26.5255,-82.0032,2.369,28.96,1111122 
SCCF RECON,ioos:station:SCCF:13:1,2017-01-09T19:00:00Z,26.5255,-82.0032,2.32,28.86,1111122 
SCCF RECON,ioos:station:SCCF:13:1,2017-01-09T20:00:00Z,26.5255,-82.0032,2.3,28.75,1111122 
SCCF RECON,ioos:station:SCCF:13:1,2017-01-09T21:00:00Z,26.5255,-82.0032,2.3,28.62,1111122 
SCCF RECON,ioos:station:SCCF:13:1,2017-01-09T22:00:00Z,26.5255,-82.0032,2.342,28.65,1111122 
SCCF RECON,ioos:station:SCCF:13:1,2017-01-09T23:00:00Z,26.5255,-82.0032,2.43,28.64,1111122 
SCCF RECON,ioos:station:SCCF:13:1,2017-01-10T00:00:00Z,26.5255,-82.0032,2.51,28.87,1111122 
SCCF RECON,ioos:station:SCCF:13:1,2017-01-10T01:00:00Z,26.5255,-82.0032,2.59,29.16,1111122 
SCCF RECON,ioos:station:SCCF:13:1,2017-01-10T02:00:00Z,26.5255,-82.0032,2.661,29.24,1111122 
SCCF RECON,ioos:station:SCCF:13:1,2017-01-10T03:00:00Z,26.5255,-82.0032,2.72,29.4,1111122 
SCCF RECON,ioos:station:SCCF:13:1,2017-01-10T04:00:00Z,26.5255,-82.0032,2.721,29.75,1111122 
SCCF RECON,ioos:station:SCCF:13:1,2017-01-10T05:00:00Z,26.5255,-82.0032,2.66,29.87,1111122 
SCCF RECON,ioos:station:SCCF:13:1,2017-01-10T06:00:00Z,26.5255,-82.0032,2.54,29.95,1111122 
SCCF RECON,ioos:station:SCCF:13:1,2017-01-10T07:00:00Z,26.5255,-82.0032,2.43,29.66,1111122 
SCCF RECON,ioos:station:SCCF:13:1,2017-01-10T08:00:00Z,26.5255,-82.0032,2.331,27.77,1111122 
SCCF RECON,ioos:station:SCCF:13:1,2017-01-10T09:00:00Z,26.5255,-82.0032,2.24,28.26,1111122 
SCCF RECON,ioos:station:SCCF:13:1,2017-01-10T10:00:00Z,26.5255,-82.0032,2.15,27.66,1111122 
SCCF RECON,ioos:station:SCCF:13:1,2017-01-10T11:00:00Z,26.5255,-82.0032,2.09,26.14,1111122 
SCCF RECON,ioos:station:SCCF:13:1,2017-01-10T12:00:00Z,26.5255,-82.0032,2.09,25.35,1111122 
SCCF RECON,ioos:station:SCCF:13:1,2017-01-10T13:00:00Z,26.5255,-82.0032,2.236,24.92,1111122 
SCCF RECON,ioos:station:SCCF:13:1,2017-01-10T14:00:00Z,26.5255,-82.0032,2.37,24.66,1111122 
SCCF RECON,ioos:station:SCCF:13:1,2017-01-10T15:00:00Z,26.5255,-82.0032,2.45,26.37,1111122 
SCCF RECON,ioos:station:SCCF:13:1,2017-01-10T16:00:00Z,26.5255,-82.0032,2.533,27.93,1111122 
SCCF RECON,ioos:station:SCCF:13:1,2017-01-10T17:00:00Z,26.5255,-82.0032,2.586,29.26,1111122 
SCCF RECON,ioos:station:SCCF:13:1,2017-01-10T18:00:00Z,26.5255,-82.0032,2.609,29.66,1111122 
SCCF RECON,ioos:station:SCCF:13:1,2017-01-10T19:00:00Z,26.5255,-82.0032,2.59,29.43,1111122 
SCCF RECON,ioos:station:SCCF:13:1,2017-01-10T20:00:00Z,26.5255,-82.0032,2.547,29.37,1111122 
SCCF RECON,ioos:station:SCCF:13:1,2017-01-10T21:00:00Z,26.5255,-82.0032,2.5,29.48,1111122 
SCCF RECON,ioos:station:SCCF:13:1,2017-01-10T22:00:00Z,26.5255,-82.0032,2.52,29.45,1111122 
SCCF RECON,ioos:station:SCCF:13:1,2017-01-10T23:00:00Z,26.5255,-82.0032,2.56,29.57,1111122 
SCCF RECON,ioos:station:SCCF:13:1,2017-01-11T00:00:00Z,26.5255,-82.0032,2.64,29.67,1111122 
SCCF RECON,ioos:station:SCCF:13:1,2017-01-11T01:00:00Z,26.5255,-82.0032,2.74,29.72,1111122 
SCCF RECON,ioos:station:SCCF:13:1,2017-01-11T02:00:00Z,26.5255,-82.0032,2.82,30.0,1111122 
SCCF RECON,ioos:station:SCCF:13:1,2017-01-11T03:00:00Z,26.5255,-82.0032,2.87,30.77,1111122 
SCCF RECON,ioos:station:SCCF:13:1,2017-01-11T04:00:00Z,26.5255,-82.0032,2.948,31.42,1111122 
SCCF RECON,ioos:station:SCCF:13:1,2017-01-11T05:00:00Z,26.5255,-82.0032,2.972,31.45,1111122 
SCCF RECON,ioos:station:SCCF:13:1,2017-01-11T06:00:00Z,26.5255,-82.0032,2.905,31.38,1111122 
SCCF RECON,ioos:station:SCCF:13:1,2017-01-11T07:00:00Z,26.5255,-82.0032,2.75,31.4,1111122 
SCCF RECON,ioos:station:SCCF:13:1,2017-01-11T08:00:00Z,26.5255,-82.0032,2.63,31.06,1111122 
SCCF RECON,ioos:station:SCCF:13:1,2017-01-11T09:00:00Z,26.5255,-82.0032,2.51,31.12,1111122 
SCCF RECON,ioos:station:SCCF:13:1,2017-01-11T10:00:00Z,26.5255,-82.0032,2.4,29.69,1111122 
SCCF RECON,ioos:station:SCCF:13:1,2017-01-11T11:00:00Z,26.5255,-82.0032,2.295,28.59,1111122 
SCCF RECON,ioos:station:SCCF:13:1,2017-01-11T12:00:00Z,26.5255,-82.0032,2.221,27.76,1111122 
SCCF RECON,ioos:station:SCCF:13:1,2017-01-11T13:00:00Z,26.5255,-82.0032,2.22,27.48,1111122 
SCCF RECON,ioos:station:SCCF:13:1,2017-01-11T14:00:00Z,26.5255,-82.0032,2.34,26.73,1111122 
SCCF RECON,ioos:station:SCCF:13:1,2017-01-11T15:00:00Z,26.5255,-82.0032,2.45,26.11,1111122 
SCCF RECON,ioos:station:SCCF:13:1,2017-01-11T16:00:00Z,26.5255,-82.0032,2.532,26.69,1111122 
SCCF RECON,ioos:station:SCCF:13:1,2017-01-11T17:00:00Z,26.5255,-82.0032,2.59,28.25,1111122 
SCCF RECON,ioos:station:SCCF:13:1,2017-01-11T18:00:00Z,26.5255,-82.0032,2.613,29.31,1111122 